When you browse on this site, cookies collect data to enhance your experience and personalize the content and advertising you see.
Visit our Privacy Policy to learn more. By continuing to use the site, you agree to this use of cookies and data.
  • In France
  • List of Countries
  • For 7 days
  • Water Temperature
  • Weather Map
  • Weather Widgets
  • user-avatar
    Login

    Hourly Weather Montreal

    Today, 31 May, Sunday

    Time Temperature Precipitation Wind Pressure Humidity
    00:00 +8°C° 0 mm 5 mps 757 mmHg 75%
    01:00 +7°C° 0 mm 4 mps 758 mmHg 72%
    02:00 +6°C° 0 mm 4 mps 758 mmHg 72%
    03:00 +5°C° 0 mm 4 mps 759 mmHg 71%
    04:00 +4°C° 0 mm 3 mps 759 mmHg 71%
    05:00 +5°C° 0 mm 4 mps 760 mmHg 65%
    06:00 +5°C° 0 mm 4 mps 760 mmHg 59%
    07:00 +6°C° 0 mm 4 mps 761 mmHg 52%
    08:00 +7°C° 0 mm 4 mps 761 mmHg 49%
    09:00 +8°C° 0 mm 5 mps 761 mmHg 45%
    10:00 +9°C° 0 mm 5 mps 761 mmHg 42%
    11:00 +10°C° 0 mm 5 mps 760 mmHg 41%
    12:00 +12°C° 0 mm 5 mps 760 mmHg 39%
    13:00 +13°C° 0 mm 5 mps 760 mmHg 38%
    14:00 +13°C° 0 mm 5 mps 760 mmHg 40%
    15:00 +13°C° 0 mm 5 mps 760 mmHg 41%
    16:00 +13°C° 0 mm 5 mps 760 mmHg 43%
    17:00 +12°C° 0 mm 4 mps 760 mmHg 48%
    18:00 +12°C° 0 mm 4 mps 760 mmHg 53%
    19:00 +11°C° 0 mm 3 mps 760 mmHg 57%
    20:00 +10°C° 0 mm 3 mps 760 mmHg 57%
    21:00 +9°C° 0 mm 2 mps 761 mmHg 57%
    22:00 +8°C° 0 mm 2 mps 761 mmHg 57%
    23:00 +8°C° 0 mm 2 mps 761 mmHg 60%

    Tomorrow, 1 June, Monday

    Time Temperature Precipitation Wind Pressure Humidity
    00:00 +7°C° 0 mm 2 mps 761 mmHg 63%
    01:00 +6°C° 0 mm 2 mps 761 mmHg 67%
    02:00 +6°C° 0 mm 2 mps 761 mmHg 67%
    03:00 +6°C° 0 mm 2 mps 761 mmHg 68%
    04:00 +7°C° 0 mm 1 mps 761 mmHg 68%
    05:00 +7°C° 0 mm 2 mps 761 mmHg 67%
    06:00 +8°C° 0 mm 2 mps 762 mmHg 66%
    07:00 +9°C° 0 mm 3 mps 762 mmHg 65%
    08:00 +10°C° 0 mm 3 mps 762 mmHg 61%
    09:00 +12°C° 0 mm 3 mps 761 mmHg 57%
    10:00 +13°C° 0 mm 4 mps 761 mmHg 54%
    11:00 +14°C° 0 mm 4 mps 760 mmHg 53%
    12:00 +15°C° 0 mm 4 mps 760 mmHg 52%
    13:00 +15°C° 0 mm 5 mps 759 mmHg 51%
    14:00 +15°C° 0.4 mm 5 mps 759 mmHg 54%
    15:00 +15°C° 0.4 mm 5 mps 758 mmHg 57%
    16:00 +15°C° 0.4 mm 5 mps 758 mmHg 59%
    17:00 +14°C° 0.2 mm 4 mps 758 mmHg 65%
    18:00 +14°C° 0.2 mm 3 mps 758 mmHg 70%
    19:00 +14°C° 0.2 mm 2 mps 758 mmHg 75%
    20:00 +13°C° 0 mm 2 mps 758 mmHg 78%
    21:00 +12°C° 0 mm 2 mps 758 mmHg 80%
    22:00 +11°C° 0 mm 1 mps 758 mmHg 82%
    23:00 +10°C° 0 mm 1 mps 758 mmHg 84%

    Day after tomorrow, 2 June, Tuesday

    Time Temperature Precipitation Wind Pressure Humidity
    00:00 +10°C° 0 mm 1 mps 758 mmHg 86%
    01:00 +9°C° 0 mm 1 mps 758 mmHg 88%
    02:00 +9°C° 0 mm 1 mps 758 mmHg 88%
    03:00 +9°C° 0 mm 1 mps 757 mmHg 88%
    04:00 +9°C° 0 mm 1 mps 757 mmHg 89%
    05:00 +10°C° 0 mm 1 mps 757 mmHg 86%
    06:00 +11°C° 0 mm 1 mps 757 mmHg 84%
    07:00 +12°C° 0 mm 1 mps 757 mmHg 82%
    08:00 +13°C° 0 mm 2 mps 756 mmHg 78%
    09:00 +15°C° 0 mm 2 mps 756 mmHg 74%
    10:00 +16°C° 0 mm 2 mps 755 mmHg 71%
    11:00 +16°C° 0.1 mm 2 mps 755 mmHg 71%
    12:00 +16°C° 0.1 mm 2 mps 755 mmHg 72%
    13:00 +17°C° 0.1 mm 2 mps 754 mmHg 72%
    14:00 +16°C° 0.1 mm 2 mps 754 mmHg 75%
    15:00 +16°C° 0.1 mm 3 mps 753 mmHg 78%
    16:00 +16°C° 0.1 mm 3 mps 753 mmHg 80%
    17:00 +16°C° 0 mm 3 mps 753 mmHg 80%
    18:00 +15°C° 0 mm 2 mps 752 mmHg 80%
    19:00 +15°C° 0 mm 2 mps 752 mmHg 80%
    20:00 +15°C° 0.1 mm 2 mps 752 mmHg 82%
    21:00 +14°C° 0.1 mm 2 mps 752 mmHg 84%
    22:00 +14°C° 0.1 mm 2 mps 751 mmHg 86%
    23:00 +13°C° 0.3 mm 2 mps 751 mmHg 88%

    3 June, Wednesday

    Time Temperature Precipitation Wind Pressure Humidity
    00:00 +13°C° 0.3 mm 2 mps 750 mmHg 89%
    01:00 +13°C° 0.3 mm 2 mps 750 mmHg 91%
    02:00 +12°C° 0.5 mm 1 mps 750 mmHg 92%
    03:00 +12°C° 0.5 mm 1 mps 749 mmHg 93%
    04:00 +12°C° 0.5 mm 1 mps 749 mmHg 94%
    05:00 +12°C° 0.2 mm 1 mps 749 mmHg 93%
    06:00 +12°C° 0.2 mm 1 mps 749 mmHg 91%
    07:00 +12°C° 0.2 mm 1 mps 749 mmHg 90%
    08:00 +13°C° 0.1 mm 1 mps 749 mmHg 88%
    09:00 +13°C° 0.1 mm 1 mps 748 mmHg 86%
    10:00 +13°C° 0.1 mm 1 mps 748 mmHg 83%
    11:00 +14°C° 0 mm 1 mps 748 mmHg 81%
    12:00 +13°C° 0 mm 0 mps 748 mmHg 78%
    13:00 +14°C° 0 mm 0 mps 748 mmHg 76%
    14:00 +15°C° 0 mm 1 mps 748 mmHg 77%
    15:00 +15°C° 0 mm 1 mps 747 mmHg 78%
    16:00 +15°C° 0 mm 2 mps 747 mmHg 80%
    17:00 +15°C° 0 mm 2 mps 747 mmHg 82%
    18:00 +15°C° 0 mm 2 mps 747 mmHg 84%
    19:00 +15°C° 0 mm 2 mps 747 mmHg 86%
    20:00 +14°C° 0 mm 2 mps 747 mmHg 88%
    21:00 +13°C° 0 mm 1 mps 747 mmHg 89%
    22:00 +12°C° 0 mm 1 mps 747 mmHg 91%
    23:00 +12°C° 0 mm 1 mps 747 mmHg 91%

    4 June, Thursday

    Time Temperature Precipitation Wind Pressure Humidity
    00:00 +12°C° 0 mm 2 mps 747 mmHg 91%
    01:00 +12°C° 0 mm 2 mps 747 mmHg 91%
    02:00 +10°C° 0 mm 2 mps 747 mmHg 90%
    03:00 +10°C° 0 mm 2 mps 748 mmHg 88%
    04:00 +10°C° 0 mm 2 mps 748 mmHg 86%
    05:00 +12°C° 0 mm 2 mps 748 mmHg 80%
    06:00 +13°C° 0 mm 2 mps 749 mmHg 73%
    07:00 +14°C° 0 mm 2 mps 749 mmHg 67%
    08:00 +16°C° 0 mm 3 mps 749 mmHg 62%
    09:00 +18°C° 0 mm 4 mps 749 mmHg 56%
    10:00 +20°C° 0 mm 4 mps 749 mmHg 51%
    11:00 +21°C° 0 mm 4 mps 749 mmHg 51%
    12:00 +22°C° 0 mm 5 mps 750 mmHg 51%
    13:00 +22°C° 0 mm 5 mps 750 mmHg 51%
    14:00 +22°C° 0 mm 5 mps 750 mmHg 53%
    15:00 +23°C° 0 mm 5 mps 750 mmHg 55%
    16:00 +23°C° 0 mm 5 mps 750 mmHg 58%
    17:00 +22°C° 0 mm 5 mps 750 mmHg 62%
    18:00 +21°C° 0 mm 4 mps 751 mmHg 66%
    19:00 +20°C° 0 mm 3 mps 751 mmHg 70%
    20:00 +19°C° 0 mm 3 mps 752 mmHg 72%
    21:00 +18°C° 0 mm 2 mps 752 mmHg 74%
    22:00 +16°C° 0 mm 2 mps 753 mmHg 76%
    23:00 +16°C° 0 mm 1 mps 753 mmHg 74%

    5 June, Friday

    Time Temperature Precipitation Wind Pressure Humidity
    00:00 +15°C° 0 mm 1 mps 753 mmHg 72%
    01:00 +14°C° 0 mm 1 mps 753 mmHg 70%
    02:00 +14°C° 0 mm 1 mps 754 mmHg 72%
    03:00 +13°C° 0 mm 1 mps 754 mmHg 73%
    04:00 +13°C° 0 mm 1 mps 754 mmHg 74%
    05:00 +14°C° 0 mm 1 mps 754 mmHg 73%
    06:00 +16°C° 0 mm 1 mps 754 mmHg 72%
    07:00 +18°C° 0 mm 1 mps 754 mmHg 71%
    08:00 +20°C° 0 mm 1 mps 754 mmHg 68%
    09:00 +20°C° 0 mm 2 mps 754 mmHg 65%
    10:00 +23°C° 0 mm 2 mps 754 mmHg 62%
    11:00 +24°C° 0 mm 2 mps 753 mmHg 58%
    12:00 +25°C° 0 mm 2 mps 753 mmHg 54%
    13:00 +26°C° 0 mm 2 mps 752 mmHg 50%
    14:00 +26°C° 0 mm 2 mps 752 mmHg 51%
    15:00 +26°C° 0 mm 2 mps 751 mmHg 53%
    16:00 +26°C° 0 mm 2 mps 750 mmHg 54%
    17:00 +25°C° 0.4 mm 2 mps 750 mmHg 61%
    18:00 +24°C° 0.4 mm 2 mps 750 mmHg 67%
    19:00 +23°C° 0.4 mm 1 mps 749 mmHg 74%
    20:00 +20°C° 1.5 mm 2 mps 750 mmHg 79%
    21:00 +18°C° 1.5 mm 3 mps 750 mmHg 84%
    22:00 +17°C° 1.5 mm 4 mps 750 mmHg 89%
    23:00 +17°C° 0.2 mm 3 mps 749 mmHg 89%
    Show more